This demonstration page uses our WeatherBlox Daily Observations layout. Learn more.

Left ArrowRight Arrow

Hourly Observations for July 11, 2018

Temp ( °F °C ) Dew Point ( °F °C ) Humidity (%) Winds ( mph kmh ) Pressure ( in mb ) Visibility ( mi km ) Precip ( " mm )
12:15 am 00:15 Clear 74 23.6 65 18.5 73 73 SSE 10 17 29.94 1014 10 16 N/A
12:35 am 00:35 Clear 75 24 65 18.3 71 71 SSE 9 15 29.91 1013 10 16 N/A
12:55 am 00:55 Clear 75 23.7 65 18.2 71 71 S 8 13 29.91 1013 10 16 N/A
1:10 am 01:10 Clear 74 23.5 65 18.1 72 72 S 8 13 29.94 1014 10 16 N/A
1:35 am 01:35 Clear 74 23.1 65 18.1 74 74 S 8 13 29.94 1014 10 16 N/A
1:55 am 01:55 Clear 73 22.9 65 18.1 74 74 S 7 11 29.94 1014 10 16 N/A
2:15 am 02:15 Clear 72 22.4 65 18.1 77 77 S 8 13 29.94 1014 10 16 N/A
2:35 am 02:35 Clear 73 22.5 65 18.1 76 76 S 7 11 29.94 1014 10 16 N/A
2:55 am 02:55 Clear 72 22.1 64 18 78 78 S 6 9 29.94 1014 10 16 N/A
3:15 am 03:15 Clear 71 21.6 64 18 80 80 S 5 7 29.94 1014 10 16 N/A
3:35 am 03:35 Clear 70 21.1 64 18 83 83 S 5 7 29.94 1014 10 16 N/A
3:55 am 03:55 Clear 70 21 64 18 83 83 S 6 9 29.94 1014 10 16 N/A
4:15 am 04:15 Clear 70 21 64 18 83 83 SSE 6 9 29.94 1014 10 16 N/A
4:35 am 04:35 Clear 70 21.2 65 18.1 83 83 SSE 6 9 29.94 1014 10 16 N/A
4:55 am 04:55 Clear 70 21 65 18.1 84 84 SSE 6 9 29.94 1014 10 16 N/A
5:15 am 05:15 Clear 70 20.9 64 18 84 84 SSE 8 13 29.94 1014 10 16 N/A
5:35 am 05:35 Clear 69 20.6 64 18 85 85 SSE 7 11 29.94 1014 10 16 N/A
5:55 am 05:55 Clear 69 20.4 64 18 86 86 SSE 7 11 29.94 1014 10 16 N/A
6:15 am 06:15 Clear 69 20.5 64 18 86 86 SSE 6 9 29.94 1014 10 16 N/A
6:35 am 06:35 Sunny 69 20.3 64 18 87 87 SSE 5 7 29.94 1014 10 16 N/A
6:55 am 06:55 Sunny 69 20.7 65 18.2 86 86 S 6 9 29.94 1014 10 16 N/A
7:15 am 07:15 Sunny 71 21.5 65 18.5 83 83 S 6 9 29.94 1014 10 16 N/A
7:35 am 07:35 Sunny 72 22.3 66 19 82 82 S 6 9 29.94 1014 10 16 N/A
7:55 am 07:55 Sunny 74 23.1 67 19.2 79 79 SSE 6 9 29.94 1014 10 16 N/A
8:15 am 08:15 Sunny 75 23.8 67 19.5 77 77 S 6 9 29.91 1013 10 16 N/A
8:35 am 08:35 Sunny 76 24.5 68 19.9 76 76 S 8 13 29.91 1013 10 16 N/A
8:55 am 08:55 Sunny 77 25.1 68 20.1 74 74 S 9 15 29.91 1013 10 16 N/A
9:15 am 09:15 Sunny 78 25.8 69 20.3 72 72 S 8 13 29.91 1013 10 16 N/A
9:35 am 09:35 Sunny 80 26.5 69 20.6 70 70 S 9 15 29.91 1013 10 16 N/A
9:55 am 09:55 Sunny 82 27.5 70 21 68 68 S 8 13 29.88 1012 10 16 N/A
10:15 am 10:15 Sunny 83 28.4 71 21.4 66 66 S 10 17 29.88 1012 10 16 N/A
10:35 am 10:35 Sunny 84 28.9 70 21.2 63 63 S 12 19 29.88 1012 10 16 N/A
10:55 am 10:55 Sunny 85 29.5 70 21.3 61 61 S 12 19 29.88 1012 10 16 N/A
11:15 am 11:15 Sunny 86 30 71 21.5 60 60 S 15 24 29.88 1012 10 16 N/A
11:35 am 11:35 Sunny 87 30.3 69 20.7 56 56 S 16 26 29.88 1012 10 16 N/A
11:55 am 11:55 Sunny 88 30.9 71 21.5 57 57 S 14 22 29.85 1011 10 16 N/A
12:15 pm 12:15 Sunny 88 31.1 70 20.9 55 55 S 14 22 29.85 1011 10 16 N/A
12:35 pm 12:35 Sunny 89 31.4 69 20.5 52 52 S 16 26 29.85 1011 10 16 N/A
12:55 pm 12:55 Sunny 89 31.6 69 20.3 51 51 SSE 16 26 29.85 1011 10 16 N/A
1:15 pm 13:15 Sunny 89 31.8 69 20.8 52 52 SSE 18 30 29.85 1011 10 16 N/A
1:35 pm 13:35 Sunny 90 32 69 20.4 50 50 S 14 22 29.85 1011 10 16 N/A
1:55 pm 13:55 Sunny 90 32.1 69 20.4 50 50 SSE 18 30 29.85 1011 10 16 N/A
2:15 pm 14:15 Sunny 90 32.3 70 20.9 51 51 SSE 13 20 29.85 1011 10 16 N/A
2:35 pm 14:35 Sunny 91 32.5 70 20.9 50 50 SSE 15 24 29.85 1011 10 16 N/A
2:55 pm 14:55 Sunny 91 32.5 69 20.7 50 50 SSE 15 24 29.83 1010 10 16 N/A
3:15 pm 15:15 Sunny 91 32.7 70 21.2 51 51 SSE 13 20 29.83 1010 10 16 N/A
3:35 pm 15:35 Sunny 91 32.8 69 20.7 49 49 SSE 17 28 29.83 1010 10 16 N/A
3:55 pm 15:55 Sunny 92 33.1 71 21.7 51 51 SSE 13 20 29.83 1010 10 16 N/A
4:15 pm 16:15 Sunny 91 32.9 70 21.3 50 50 SSE 14 22 29.83 1010 10 16 N/A
4:35 pm 16:35 Sunny 91 32.9 70 21 50 50 SSE 17 28 29.83 1010 10 16 N/A
4:55 pm 16:55 Sunny 91 32.7 69 20.3 48 48 SSE 15 24 29.83 1010 10 16 N/A
5:15 pm 17:15 Sunny 91 32.8 68 20.2 47 47 SSE 13 20 29.83 1010 10 16 N/A
5:35 pm 17:35 Sunny 91 32.6 68 19.9 47 47 SSE 13 20 29.80 1009 10 16 N/A
5:55 pm 17:55 Sunny 91 32.5 67 19.7 47 47 SSE 15 24 29.80 1009 10 16 N/A
6:15 pm 18:15 Sunny 90 32.2 68 20 48 48 SSE 14 22 29.80 1009 10 16 N/A
6:35 pm 18:35 Sunny 90 32.1 67 19.6 48 48 SSE 10 17 29.80 1009 10 16 N/A
6:55 pm 18:55 Sunny 89 31.7 68 19.9 50 50 SSE 10 17 29.80 1009 10 16 N/A
7:15 pm 19:15 Sunny 89 31.5 69 20.4 52 52 SSE 10 17 29.80 1009 10 16 N/A
7:35 pm 19:35 Sunny 87 30.7 69 20.7 55 55 SSE 9 15 29.80 1009 10 16 N/A
7:55 pm 19:55 Sunny 87 30.3 69 20.5 56 56 SSE 9 15 29.80 1009 10 16 N/A
8:15 pm 20:15 Sunny 85 29.6 69 20.8 59 59 SSE 7 11 29.83 1010 10 16 N/A
8:35 pm 20:35 Sunny 84 28.7 70 21 63 63 SE 7 11 29.83 1010 10 16 N/A
8:55 pm 20:55 Sunny 84 28.7 69 20.5 61 61 SE 8 13 29.83 1010 10 16 N/A
9:15 pm 21:15 Clear 82 28 69 20.5 64 64 SSE 8 13 29.85 1011 10 16 N/A
9:35 pm 21:35 Clear 80 26.8 69 20.6 69 69 SSE 8 13 29.88 1012 10 16 N/A
9:55 pm 21:55 Clear 79 25.9 69 20.8 74 74 SSE 7 11 29.88 1012 10 16 N/A
10:15 pm 22:15 Clear 80 26.4 69 20.6 71 71 SE 6 9 29.91 1013 10 16 N/A
10:35 pm 22:35 Clear 78 25.7 69 20.3 72 72 SSE 8 13 29.91 1013 10 16 N/A
10:55 pm 22:55 Clear 78 25.3 68 20.1 73 73 SSE 7 11 29.91 1013 10 16 N/A
11:15 pm 23:15 Clear 77 25.2 68 19.9 73 73 SSE 8 13 29.91 1013 10 16 N/A
11:35 pm 23:35 Clear 76 24.7 67 19.6 73 73 SSE 8 13 29.91 1013 10 16 N/A
11:55 pm 23:55 Clear 76 24.5 67 19.5 74 74 SSE 9 15 29.91 1013 10 16 N/A

Powered by AerisWeather